Location: Fontenoy
(49.4072°N, 3.2008°E)
Time: 12:05:00
(UTC+00:00)

GRACE-FO 2 - Pass Details

Date: 15 May 2026
Orbit: 442 x 460 km, 89.0° (Epoch: 6 June)

Event Time Altitude Azimuth Distance (km) Brightness Sun altitude
Exits shadow 21:35:33 36° 158° (SSE) 752 5.0 -15.9°
Maximum altitude 21:36:48 67° 88° (E) 507 4.4 -16.0°
Drops below altitude 10° 21:40:18 10° 5° (N) 1,622 8.0 -16.3°
Sets 21:42:23 0° 3° (N) 2,501 9.2 -16.5°
